When you browse on this site, cookies collect data to enhance your experience and personalize the content and advertising you see.
Visit our Privacy Policy to learn more. By continuing to use the site, you agree to this use of cookies and data.
  • In Spain
  • List of Countries
  • For 7 days
  • Water Temperature
  • Satellite Maps
  • Weather Map
  • Weather Widgets
  • user-avatar
    Login

    Hourly Weather Velezhevo

    Today, 22 March, Friday

    Time Temperature Precipitation Wind Pressure Humidity
    00:00 -2°C° 0 mm 2 mps 745 mmHg 94%
    01:00 -2°C° 0 mm 2 mps 745 mmHg 94%
    02:00 -3°C° 0 mm 2 mps 745 mmHg 93%
    03:00 -3°C° 0 mm 2 mps 745 mmHg 93%
    04:00 -2°C° 0 mm 3 mps 744 mmHg 93%
    05:00 -2°C° 0 mm 3 mps 743 mmHg 92%
    06:00 -3°C° 0 mm 4 mps 743 mmHg 92%
    07:00 -2°C° 0.1 mm 4 mps 742 mmHg 89%
    08:00 -1°C° 0.1 mm 5 mps 741 mmHg 86%
    09:00 -1°C° 0.1 mm 6 mps 740 mmHg 84%
    10:00 -1°C° 1 mm 6 mps 738 mmHg 85%
    11:00 -1°C° 1 mm 6 mps 737 mmHg 87%
    12:00 -1°C° 1 mm 7 mps 736 mmHg 89%
    13:00 -1°C° 0.9 mm 7 mps 736 mmHg 89%
    14:00 -1°C° 0.9 mm 7 mps 736 mmHg 88%
    15:00 -1°C° 0.9 mm 8 mps 736 mmHg 88%
    16:00 -2°C° 0.5 mm 8 mps 736 mmHg 86%
    17:00 -2°C° 0.5 mm 8 mps 737 mmHg 85%
    18:00 -4°C° 0.5 mm 8 mps 737 mmHg 83%
    19:00 -4°C° 0.2 mm 8 mps 737 mmHg 83%
    20:00 -4°C° 0.2 mm 8 mps 738 mmHg 84%
    21:00 -3°C° 0.2 mm 7 mps 738 mmHg 84%
    22:00 -4°C° 0.2 mm 7 mps 738 mmHg 85%
    23:00 -4°C° 0.2 mm 7 mps 738 mmHg 87%

    Tomorrow, 23 March, Saturday

    Time Temperature Precipitation Wind Pressure Humidity
    00:00 -4°C° 0.2 mm 7 mps 738 mmHg 88%
    01:00 -3°C° 0.3 mm 7 mps 739 mmHg 89%
    02:00 -3°C° 0.3 mm 7 mps 739 mmHg 90%
    03:00 -3°C° 0.3 mm 7 mps 740 mmHg 91%
    04:00 -3°C° 0.1 mm 6 mps 740 mmHg 91%
    05:00 -3°C° 0.1 mm 6 mps 741 mmHg 91%
    06:00 -3°C° 0.1 mm 6 mps 742 mmHg 91%
    07:00 -3°C° 0 mm 6 mps 743 mmHg 91%
    08:00 -3°C° 0 mm 6 mps 744 mmHg 90%
    09:00 -3°C° 0 mm 6 mps 745 mmHg 90%
    10:00 -2°C° 0.1 mm 5 mps 746 mmHg 89%
    11:00 -2°C° 0.1 mm 5 mps 746 mmHg 89%
    12:00 -2°C° 0.1 mm 5 mps 747 mmHg 88%
    13:00 -2°C° 0 mm 4 mps 747 mmHg 88%
    14:00 -2°C° 0 mm 4 mps 747 mmHg 88%
    15:00 0°C° 0 mm 3 mps 747 mmHg 88%
    16:00 0°C° 0 mm 3 mps 747 mmHg 88%
    17:00 -1°C° 0 mm 2 mps 747 mmHg 89%
    18:00 -1°C° 0 mm 2 mps 747 mmHg 89%
    19:00 +1°C° 0 mm 1 mps 747 mmHg 88%
    20:00 +1°C° 0 mm 1 mps 747 mmHg 88%
    21:00 +1°C° 0 mm 1 mps 747 mmHg 87%
    22:00 +1°C° 0 mm 1 mps 747 mmHg 86%
    23:00 +1°C° 0 mm 1 mps 747 mmHg 85%

    Day after tomorrow, 24 March, Sunday

    Time Temperature Precipitation Wind Pressure Humidity
    00:00 +1°C° 0 mm 1 mps 747 mmHg 85%
    01:00 0°C° 0 mm 1 mps 746 mmHg 85%
    02:00 -1°C° 0 mm 1 mps 746 mmHg 86%
    03:00 -3°C° 0 mm 2 mps 745 mmHg 87%
    04:00 -3°C° 0 mm 2 mps 745 mmHg 87%
    05:00 -3°C° 0 mm 2 mps 744 mmHg 87%
    06:00 -4°C° 0 mm 3 mps 744 mmHg 87%
    07:00 -4°C° 0 mm 3 mps 743 mmHg 87%
    08:00 -3°C° 0.1 mm 4 mps 743 mmHg 86%
    09:00 -4°C° 0 mm 5 mps 742 mmHg 86%
    10:00 -2°C° 0.3 mm 5 mps 742 mmHg 88%
    11:00 -2°C° 0.3 mm 5 mps 741 mmHg 90%
    12:00 -3°C° 0.3 mm 6 mps 741 mmHg 92%
    13:00 -1°C° 0.1 mm 5 mps 740 mmHg 92%
    14:00 -1°C° 0.1 mm 5 mps 740 mmHg 92%
    15:00 -1°C° 0.1 mm 5 mps 739 mmHg 92%
    16:00 -1°C° 0 mm 4 mps 739 mmHg 92%
    17:00 -1°C° 0 mm 4 mps 739 mmHg 92%
    18:00 0°C° 0 mm 3 mps 739 mmHg 93%
    19:00 0°C° 0.1 mm 3 mps 739 mmHg 91%
    20:00 0°C° 0.1 mm 3 mps 739 mmHg 90%
    21:00 -1°C° 0.1 mm 3 mps 739 mmHg 89%
    22:00 -1°C° 0 mm 3 mps 739 mmHg 89%
    23:00 -2°C° 0 mm 3 mps 739 mmHg 88%

    25 March, Monday

    Time Temperature Precipitation Wind Pressure Humidity
    00:00 -4°C° 0 mm 3 mps 739 mmHg 88%
    01:00 -4°C° 0 mm 3 mps 739 mmHg 88%
    02:00 -4°C° 0 mm 3 mps 739 mmHg 89%
    03:00 -5°C° 0 mm 3 mps 739 mmHg 89%
    04:00 -5°C° 0 mm 3 mps 739 mmHg 90%
    05:00 -5°C° 0 mm 3 mps 739 mmHg 91%
    06:00 -5°C° 0 mm 3 mps 739 mmHg 92%
    07:00 -5°C° 0 mm 4 mps 739 mmHg 89%
    08:00 -4°C° 0 mm 4 mps 739 mmHg 87%
    09:00 -3°C° 0 mm 4 mps 740 mmHg 85%
    10:00 -3°C° 0 mm 4 mps 740 mmHg 82%
    11:00 -2°C° 0 mm 4 mps 740 mmHg 78%
    12:00 -2°C° 0 mm 4 mps 740 mmHg 75%
    13:00 -1°C° 0.1 mm 5 mps 740 mmHg 74%
    14:00 -1°C° 0.1 mm 5 mps 740 mmHg 72%
    15:00 -1°C° 0.1 mm 5 mps 740 mmHg 70%
    16:00 -1°C° 0 mm 4 mps 740 mmHg 71%
    17:00 -1°C° 0 mm 3 mps 740 mmHg 73%
    18:00 -1°C° 0 mm 3 mps 740 mmHg 74%
    19:00 -2°C° 0 mm 3 mps 740 mmHg 76%
    20:00 -2°C° 0 mm 2 mps 741 mmHg 78%
    21:00 -3°C° 0 mm 2 mps 741 mmHg 80%
    22:00 -3°C° 0 mm 2 mps 741 mmHg 80%
    23:00 -4°C° 0 mm 3 mps 741 mmHg 80%

    26 March, Tuesday

    Time Temperature Precipitation Wind Pressure Humidity
    00:00 -4°C° 0 mm 3 mps 741 mmHg 80%
    01:00 -4°C° 0 mm 3 mps 741 mmHg 80%
    02:00 -4°C° 0 mm 4 mps 741 mmHg 81%
    03:00 -3°C° 0 mm 4 mps 741 mmHg 82%
    04:00 -3°C° 0 mm 4 mps 741 mmHg 81%
    05:00 -4°C° 0 mm 4 mps 741 mmHg 81%
    06:00 -4°C° 0 mm 4 mps 740 mmHg 81%
    07:00 -4°C° 0 mm 5 mps 741 mmHg 76%
    08:00 -2°C° 0 mm 5 mps 741 mmHg 72%
    09:00 -2°C° 0 mm 6 mps 741 mmHg 67%
    10:00 -1°C° 0 mm 6 mps 741 mmHg 63%
    11:00 +1°C° 0 mm 6 mps 741 mmHg 59%
    12:00 +2°C° 0 mm 6 mps 742 mmHg 55%
    13:00 +1°C° 0.1 mm 5 mps 741 mmHg 59%
    14:00 +1°C° 0.1 mm 4 mps 741 mmHg 64%
    15:00 +1°C° 0.1 mm 4 mps 741 mmHg 68%
    16:00 +1°C° 0.3 mm 3 mps 741 mmHg 74%
    17:00 +1°C° 0.3 mm 2 mps 741 mmHg 80%
    18:00 +1°C° 0.3 mm 1 mps 741 mmHg 87%
    19:00 0°C° 0 mm 1 mps 741 mmHg 87%
    20:00 0°C° 0 mm 1 mps 741 mmHg 86%
    21:00 -1°C° 0 mm 1 mps 741 mmHg 86%
    22:00 -3°C° 0 mm 2 mps 741 mmHg 84%
    23:00 -3°C° 0 mm 2 mps 740 mmHg 82%

    27 March, Wednesday

    Time Temperature Precipitation Wind Pressure Humidity
    00:00 -3°C° 0 mm 2 mps 740 mmHg 79%
    01:00 -4°C° 0 mm 3 mps 739 mmHg 77%
    02:00 -4°C° 0 mm 4 mps 739 mmHg 74%
    03:00 -3°C° 0 mm 4 mps 738 mmHg 71%
    04:00 -3°C° 0.1 mm 4 mps 738 mmHg 75%
    05:00 -3°C° 0.1 mm 4 mps 737 mmHg 79%
    06:00 -4°C° 0.1 mm 4 mps 737 mmHg 84%
    07:00 -3°C° 0.9 mm 4 mps 737 mmHg 86%
    08:00 -3°C° 0.9 mm 4 mps 737 mmHg 88%
    09:00 -3°C° 0.9 mm 4 mps 736 mmHg 91%
    10:00 -3°C° 0.1 mm 4 mps 737 mmHg 85%
    11:00 -2°C° 0.1 mm 4 mps 737 mmHg 79%
    12:00 -2°C° 0.1 mm 4 mps 737 mmHg 74%
    13:00 -1°C° 0.2 mm 4 mps 737 mmHg 71%
    14:00 -1°C° 0.2 mm 5 mps 738 mmHg 67%
    15:00 -1°C° 0.2 mm 5 mps 738 mmHg 64%
    16:00 -1°C° 0.1 mm 5 mps 739 mmHg 67%
    17:00 -2°C° 0.1 mm 4 mps 739 mmHg 69%
    18:00 -2°C° 0.1 mm 4 mps 740 mmHg 71%
    19:00 -3°C° 0 mm 4 mps 741 mmHg 76%
    20:00 -4°C° 0 mm 5 mps 742 mmHg 80%
    21:00 -4°C° 0 mm 5 mps 742 mmHg 85%
    22:00 -5°C° 0 mm 5 mps 743 mmHg 85%
    23:00 -5°C° 0 mm 5 mps 744 mmHg 86%
    Show more